Regional Weather Roundup
Issued by NWS Sterling, VA

Home | Current Version | Previous Version | Graphics & Text | Print | Product List | Glossary On
Versions: 1 2 3 4 5 6 7 8 9 10 11 12 13 14 15 16 17 18 19 20 21 22 23 24 25 26 27 28 29 30 31 32 33 34 35 36 37 38 39 40 41 42 43 44 45 46 47 48 49 50
000
ASUS41 KLWX 290611
RWRLWX

REGIONAL WEATHER ROUNDUP
NATIONAL WEATHER SERVICE BALTIMORE MD/WASHINGTON DC
200 AM EDT THU SEP 29 2016

Note: "FAIR" indicates few or no clouds below 12,000 feet
with no significant weather and/or obstructions to visibility.
 TC=TEMPERATURE CELSIUS

 * =Non NWS site. Station does not report precipitation (e.g. rain,
    snow, etc.), thunder, or fog.

DCZ001-MDZ009-015-VAZ040>042-051-053>054-290700-
WASHINGTON METRO

CITY           SKY/WX    TMP DP  RH WIND       PRES   REMARKS
WASHINGTON NAT LGT RAIN  69  68  96 E10       30.03S
DULLES         HVY RAIN  68  66  93 E14       30.02S FOG
ANDREWS AFB    LGT RAIN  67  66  94 E14G21    30.03R
FT BELVOIR     LGT RAIN  68  66  94 VRB3      30.03R
QUANTICO       RAIN      71  68  90 SE8       30.04R
COLLEGE PARK*  CLOUDY    66  64  94 E7        30.04S
LEESBURG*      RAIN      68  68 100 E12G20    30.03F
MANASSAS*      CLOUDY    70  70 100 SE9       30.02R
GAITHERSBURG*  CLOUDY    66  63  88 E8G18     30.09R

$$

MDZ006>007-011-014-290700-
BALTIMORE METRO

CITY           SKY/WX    TMP DP  RH WIND       PRES   REMARKS
BWI AIRPORT    LGT RAIN  67  65  93 E18G26    30.07R
MD SCIENCE CTR   N/A     66  63  90 MISG      30.08S
ANNAPOLIS      RAIN      70  67  90 E15G23    30.05R
FORT MEADE*    CLOUDY    66  64  94 E16       30.08R

$$

MDZ012-015-019>023-290700-
MARYLAND EASTERN SHORE

CITY           SKY/WX    TMP DP  RH WIND       PRES   REMARKS
OCEAN CITY     CLOUDY    72  68  87 E23G33    30.04F
SALISBURY      HVY RAIN  67  66  97 N6G18     30.05S VSB 1/2
BAY BRIDGE AP* LGT RAIN N/A N/A N/A MISG      30.06R
CAMBRIDGE*     CLOUDY    66  64  94 NE14G24   30.04F

$$

MDZ017>025-290700-
SOUTHERN MARYLAND

CITY           SKY/WX    TMP DP  RH WIND       PRES   REMARKS
PATUXENT RIVER LGT RAIN  69  66  90 E16G28    30.04R FOG
ST INIGOES     HVY RAIN  69  67  93 E14G23    30.05R FOG
LEONARDTOWN*   CLOUDY    68  64  88 E7G21     30.07R

$$

MDZ003>005-290700-
NORTH CENTRAL MARYLAND

CITY           SKY/WX    TMP DP  RH WIND       PRES   REMARKS
FREDERICK*     NOT AVBL
HAGERSTOWN APT LGT RAIN  63  59  87 E16       30.05S

$$

MDZ501>502-290700-
WESTERN MARYLAND

CITY           SKY/WX    TMP DP  RH WIND       PRES   REMARKS
OAKLAND*       CLOUDY    55  55 100 E17G25    30.05S FOG
CUMBERLAND*    CLOUDY    64  61  88 N6        30.08R

$$

VAZ025>031-290700-
SHENANDOAH VALLEY

CITY           SKY/WX    TMP DP  RH WIND       PRES   REMARKS
WINCHESTER*    CLOUDY    64  63  94 CALM        N/A
FRONT ROYAL*   CLOUDY    61  61 100 CALM      30.03R
LURAY*         HVY RAIN N/A N/A N/A E5        30.02S
NEW MARKET*    CLOUDY   N/A N/A N/A CALM      30.01F
STAUNTON*      RAIN      62  61  97 CALM      30.03F
WAYNESBORO*    CLOUDY    62  61  96 CALM      30.01F

$$

WVZ021-048>050-054>055-290700-
EASTERN WEST VIRGINIA PANHANDLE

CITY           SKY/WX    TMP DP  RH WIND       PRES   REMARKS
MARTINSBURG    LGT RAIN  63  61  93 N13       30.02S
PETERSBURG*    RAIN      64  63  95 CALM      30.01F

$$

VAZ036>039-050-290700-
CENTRAL FOOTHILLS

CITY           SKY/WX    TMP DP  RH WIND       PRES   REMARKS
CHARLOTTESVILL CLOUDY    68  65  90 N5        30.00F
CULPEPER*      LGT RAIN  68  68  99 CALM      30.02S
ORANGE*          N/A     66  66 100 CALM      30.03S
GORDONSVILLE*  CLOUDY    66  66 100 CALM      30.00F
WARRENTON*     CLOUDY    69  64  84 SE5       30.01R

$$

VAZ055>057-290700-
NORTH AND CENTRAL PIEDMONT

CITY           SKY/WX    TMP DP  RH WIND       PRES   REMARKS
FREDERICKSBRG* LGT RAIN  68  68 100 E8        30.01R
STAFFORD*      RAIN      68  68 100 SE7       30.06R

$$

NCZ024-NYZ072-PAZ021-071-VAZ022-071-290700-
OTHER REGIONAL OBSERVATIONS

CITY           SKY/WX    TMP DP  RH WIND       PRES   REMARKS
NEW YORK CITY  CLOUDY    57  54  89 E9G20     30.29R
PHILADELPHIA   LGT RAIN  61  59  93 NE13      30.20S FOG
PITTSBURGH     CLOUDY    64  60  87 SE5       30.00R
ROANOKE        CLOUDY    64  63  96 NE5       30.00F
RICHMOND       CLOUDY    66  65  96 E12       30.00F
RALEIGH        TSTM      65  64  97 CALM      30.03R

$$

ANZ530>537-290700-
MARINE OBSERVATIONS

STATION/POSITION TIME  TEMP    WIND        PRES
                       AIR SEA DIR/SP/G
                 (UTC) (F)     (DEG/KT/KT) (MB)
THOMAS PT LIGHT  0600   69 73  100/ 26/ 29 1017.9R
BALT KEY BRIDGE  0548           70/ 16/ 21 1017.8S
COVE POINT       0548          110/ 24/ 30 1018.0R
LEWISETTA        0548      72   90/ 19/ 22 1017.0R
SOLOMONS ISLAND  0548      74   70/ 22/ 27   N/A
PINEY POINT      0548          100/ 17/ 19   N/A

$$




USA.gov is the U.S. government's official web portal to all federal, state and local government web resources and services.